• In Denmark
  • List of Countries
  • For 7 days
  • Water Temperature
  • Satellite Maps
  • Weather Map
  • Weather Widgets
  • user-avatar
    Login

    Hourly Weather Bulakty

    Today, 21 August, Tuesday

    Time Temperature Precipitation Wind Pressure Humidity
    00:00 +25°C° 0 mm 3 mps 691 mmHg 55%
    01:00 +24°C° 0 mm 3 mps 691 mmHg 60%
    02:00 +23°C° 0 mm 2 mps 692 mmHg 65%
    03:00 +23°C° 0.2 mm 2 mps 692 mmHg 69%
    04:00 +21°C° 0.2 mm 2 mps 692 mmHg 73%
    05:00 +21°C° 0 mm 2 mps 693 mmHg 78%
    06:00 +21°C° 0.7 mm 2 mps 693 mmHg 79%
    07:00 +21°C° 0.7 mm 2 mps 693 mmHg 81%
    08:00 +22°C° 0.7 mm 1 mps 693 mmHg 82%
    09:00 +23°C° 0.2 mm 2 mps 693 mmHg 78%
    10:00 +24°C° 0.2 mm 2 mps 693 mmHg 73%
    11:00 +24°C° 0 mm 2 mps 694 mmHg 72%
    12:00 +25°C° 0.5 mm 2 mps 694 mmHg 70%
    13:00 +25°C° 0.5 mm 2 mps 694 mmHg 69%
    14:00 +25°C° 0.5 mm 2 mps 693 mmHg 68%
    15:00 +25°C° 0.5 mm 2 mps 693 mmHg 68%
    16:00 +25°C° 0.5 mm 2 mps 693 mmHg 68%
    17:00 +24°C° 0 mm 2 mps 694 mmHg 68%
    18:00 +23°C° 0.2 mm 1 mps 694 mmHg 70%
    19:00 +22°C° 0.2 mm 1 mps 694 mmHg 71%
    20:00 +22°C° 0.2 mm 1 mps 695 mmHg 73%
    21:00 +21°C° 0.1 mm 1 mps 695 mmHg 75%
    22:00 +21°C° 0.1 mm 1 mps 694 mmHg 76%
    23:00 +20°C° 0.1 mm 1 mps 694 mmHg 77%

    Tomorrow, 22 August, Wednesday

    Time Temperature Precipitation Wind Pressure Humidity
    00:00 +20°C° 0 mm 1 mps 694 mmHg 78%
    01:00 +20°C° 0 mm 1 mps 694 mmHg 78%
    02:00 +19°C° 0 mm 1 mps 694 mmHg 78%
    03:00 +19°C° 0 mm 1 mps 693 mmHg 78%
    04:00 +19°C° 0 mm 1 mps 693 mmHg 78%
    05:00 +18°C° 0 mm 1 mps 693 mmHg 77%
    06:00 +20°C° 0 mm 1 mps 693 mmHg 72%
    07:00 +21°C° 0 mm 1 mps 694 mmHg 67%
    08:00 +22°C° 0 mm 1 mps 694 mmHg 61%
    09:00 +23°C° 0.1 mm 2 mps 694 mmHg 60%
    10:00 +24°C° 0.1 mm 2 mps 694 mmHg 59%
    11:00 +25°C° 0.1 mm 2 mps 694 mmHg 57%
    12:00 +25°C° 0.2 mm 2 mps 693 mmHg 56%
    13:00 +26°C° 0.2 mm 2 mps 693 mmHg 56%
    14:00 +26°C° 0.2 mm 2 mps 693 mmHg 55%
    15:00 +26°C° 0.2 mm 2 mps 693 mmHg 55%
    16:00 +26°C° 0.2 mm 2 mps 693 mmHg 55%
    17:00 +25°C° 0.2 mm 2 mps 693 mmHg 55%
    18:00 +24°C° 0.1 mm 2 mps 693 mmHg 59%
    19:00 +21°C° 0.1 mm 2 mps 693 mmHg 63%
    20:00 +20°C° 0.1 mm 1 mps 693 mmHg 66%
    21:00 +20°C° 0 mm 1 mps 693 mmHg 67%
    22:00 +20°C° 0 mm 1 mps 693 mmHg 67%
    23:00 +19°C° 0 mm 1 mps 693 mmHg 67%

    Day after tomorrow, 23 August, Thursday

    Time Temperature Precipitation Wind Pressure Humidity
    00:00 +19°C° 0 mm 1 mps 693 mmHg 67%
    01:00 +19°C° 0 mm 1 mps 693 mmHg 67%
    02:00 +19°C° 0 mm 1 mps 692 mmHg 67%
    03:00 +18°C° 0 mm 1 mps 692 mmHg 67%
    04:00 +18°C° 0 mm 1 mps 692 mmHg 67%
    05:00 +18°C° 0 mm 1 mps 692 mmHg 67%
    06:00 +20°C° 0 mm 1 mps 692 mmHg 62%
    07:00 +22°C° 0 mm 1 mps 693 mmHg 57%
    08:00 +24°C° 0 mm 1 mps 693 mmHg 52%
    09:00 +25°C° 0.1 mm 1 mps 693 mmHg 50%
    10:00 +26°C° 0.1 mm 2 mps 692 mmHg 48%
    11:00 +27°C° 0.1 mm 2 mps 692 mmHg 46%
    12:00 +27°C° 0.1 mm 3 mps 692 mmHg 45%
    13:00 +28°C° 0.1 mm 3 mps 692 mmHg 44%
    14:00 +28°C° 0.1 mm 3 mps 691 mmHg 43%
    15:00 +28°C° 0.1 mm 3 mps 691 mmHg 44%
    16:00 +28°C° 0.1 mm 3 mps 691 mmHg 45%
    17:00 +27°C° 0.1 mm 2 mps 691 mmHg 46%
    18:00 +25°C° 0 mm 2 mps 691 mmHg 51%
    19:00 +23°C° 0 mm 2 mps 691 mmHg 55%
    20:00 +20°C° 0 mm 2 mps 691 mmHg 60%
    21:00 +20°C° 0 mm 2 mps 691 mmHg 60%
    22:00 +20°C° 0 mm 2 mps 691 mmHg 60%
    23:00 +19°C° 0 mm 2 mps 691 mmHg 61%

    24 August, Friday

    Time Temperature Precipitation Wind Pressure Humidity
    00:00 +19°C° 0 mm 2 mps 690 mmHg 61%
    01:00 +19°C° 0 mm 2 mps 690 mmHg 61%
    02:00 +19°C° 0 mm 2 mps 690 mmHg 61%
    03:00 +19°C° 0 mm 2 mps 690 mmHg 61%
    04:00 +19°C° 0 mm 2 mps 690 mmHg 60%
    05:00 +18°C° 0 mm 2 mps 690 mmHg 60%
    06:00 +20°C° 0 mm 2 mps 690 mmHg 56%
    07:00 +23°C° 0 mm 1 mps 690 mmHg 52%
    08:00 +25°C° 0 mm 1 mps 690 mmHg 48%
    09:00 +26°C° 0.2 mm 1 mps 690 mmHg 47%
    10:00 +27°C° 0.2 mm 1 mps 690 mmHg 46%
    11:00 +28°C° 0.2 mm 1 mps 690 mmHg 45%
    12:00 +28°C° 0.5 mm 2 mps 690 mmHg 46%
    13:00 +29°C° 0.5 mm 2 mps 690 mmHg 46%
    14:00 +29°C° 0.5 mm 2 mps 690 mmHg 46%
    15:00 +28°C° 0.6 mm 2 mps 690 mmHg 48%
    16:00 +28°C° 0.6 mm 3 mps 690 mmHg 49%
    17:00 +27°C° 0.6 mm 3 mps 690 mmHg 51%
    18:00 +26°C° 0.8 mm 4 mps 690 mmHg 54%
    19:00 +25°C° 0.8 mm 4 mps 691 mmHg 57%
    20:00 +23°C° 0.8 mm 4 mps 691 mmHg 60%
    21:00 +23°C° 1.2 mm 4 mps 691 mmHg 60%
    22:00 +22°C° 1.2 mm 4 mps 691 mmHg 61%
    23:00 +22°C° 1.2 mm 4 mps 691 mmHg 61%

    25 August, Saturday

    Time Temperature Precipitation Wind Pressure Humidity
    00:00 +22°C° 0.6 mm 3 mps 691 mmHg 61%
    01:00 +21°C° 0.6 mm 3 mps 691 mmHg 61%
    02:00 +21°C° 0.6 mm 3 mps 691 mmHg 60%
    03:00 +20°C° 0.1 mm 3 mps 691 mmHg 60%
    04:00 +20°C° 0.1 mm 3 mps 690 mmHg 60%
    05:00 +19°C° 0.1 mm 3 mps 690 mmHg 59%
    06:00 +21°C° 0 mm 2 mps 691 mmHg 55%
    07:00 +24°C° 0 mm 1 mps 691 mmHg 51%
    08:00 +25°C° 0 mm 1 mps 691 mmHg 48%
    09:00 +26°C° 0 mm 1 mps 691 mmHg 46%
    10:00 +27°C° 0 mm 1 mps 691 mmHg 44%
    11:00 +28°C° 0 mm 1 mps 691 mmHg 42%
    12:00 +29°C° 0 mm 2 mps 690 mmHg 41%
    13:00 +29°C° 0 mm 2 mps 690 mmHg 41%
    14:00 +29°C° 0 mm 2 mps 689 mmHg 41%
    15:00 +29°C° 0.2 mm 2 mps 689 mmHg 42%
    16:00 +28°C° 0.2 mm 2 mps 689 mmHg 44%
    17:00 +28°C° 0.2 mm 2 mps 689 mmHg 46%
    18:00 +26°C° 0.2 mm 2 mps 689 mmHg 49%
    19:00 +24°C° 0.2 mm 2 mps 689 mmHg 53%
    20:00 +21°C° 0.2 mm 2 mps 689 mmHg 56%
    21:00 +21°C° 0 mm 2 mps 689 mmHg 56%
    22:00 +20°C° 0 mm 2 mps 688 mmHg 56%
    23:00 +20°C° 0 mm 2 mps 688 mmHg 55%

    26 August, Sunday

    Time Temperature Precipitation Wind Pressure Humidity
    00:00 +20°C° 0 mm 2 mps 688 mmHg 55%
    01:00 +19°C° 0 mm 2 mps 688 mmHg 55%
    02:00 +19°C° 0 mm 2 mps 687 mmHg 55%
    03:00 +19°C° 0 mm 2 mps 687 mmHg 55%
    04:00 +18°C° 0 mm 2 mps 687 mmHg 54%
    05:00 +18°C° 0 mm 2 mps 687 mmHg 54%
    06:00 +19°C° 0 mm 2 mps 688 mmHg 51%
    07:00 +21°C° 0 mm 2 mps 688 mmHg 48%
    08:00 +23°C° 0 mm 2 mps 688 mmHg 45%
    09:00 +24°C° 0 mm 2 mps 688 mmHg 45%
    10:00 +24°C° 0 mm 2 mps 688 mmHg 44%
    11:00 +25°C° 0 mm 2 mps 688 mmHg 44%
    12:00 +25°C° 0 mm 3 mps 688 mmHg 44%
    13:00 +25°C° 0 mm 3 mps 688 mmHg 44%
    14:00 +26°C° 0 mm 3 mps 688 mmHg 44%
    15:00 +25°C° 0.2 mm 2 mps 689 mmHg 46%
    16:00 +24°C° 0.2 mm 2 mps 689 mmHg 47%
    17:00 +24°C° 0.2 mm 2 mps 690 mmHg 49%
    18:00 +22°C° 0.2 mm 1 mps 690 mmHg 52%
    19:00 +21°C° 0.2 mm 1 mps 691 mmHg 55%
    20:00 +19°C° 0.2 mm 1 mps 691 mmHg 58%
    21:00 +19°C° 0.1 mm 1 mps 691 mmHg 59%
    22:00 +18°C° 0.1 mm 1 mps 691 mmHg 60%
    23:00 +18°C° 0.1 mm 1 mps 691 mmHg 61%
    Show more